Kissimmee, FL

10:40 PM EST on November 17, 2019 (GMT -0500)
Kissimmee Municipal

Weather History for KISM - August, 2019

Change the Weather History Date:

Saturday, August 10, 2019

  Actual Average Record
Temperature  
Mean Temperature 85 °F -  
Max Temperature 93 °F 91 °F 102 °F (2007)
Min Temperature 77 °F 72 °F 69 °F (1971)
Cooling Degree Days 20    
Growing Degree Days 35 (Base 50)    
Moisture  
Dew Point 77 °F    
Average Humidity 85    
Maximum Humidity 100    
Minimum Humidity 56    
Precipitation  
Precipitation 0.00 in - - ()
Sea Level Pressure  
Sea Level Pressure 29.98 in    
Wind  
Wind Speed 4 mph (WSW)    
Max Wind Speed 16 mph    
Max Gust Speed -    
Visibility 10 miles    
Events Rain , Thunderstorm    
Averages and records for this station are not official NWS values.
T = Trace of Precipitation, MM = Missing Value Source: NWS Daily Summary

Daily Weather History Graph

Daily Weather History Graph

Search for Another Location

Airport or City:

Astronomy

Aug. 10, 2019 Rise Set
Actual Time 6:52 AM EDT 8:09 PM EDT
Civil Twilight 6:27 AM EDT 8:34 PM EDT
Nautical Twilight 5:58 AM EDT 9:03 PM EDT
Astronomical Twilight 5:27 AM EDT 9:34 PM EDT
Moon 4:40 PM EDT (8/10) 2:35 AM EDT (8/10)
Length of Visible Light 14h 06m
Length of Day
13h 16m
Waxing Gibbous, 79% of the Moon is Illuminated
Aug 10
Waxing Gibbous
Aug 15
Full
Aug 23
Last Quarter
Aug 30
New
Sep 5
First Quarter

Hourly Weather History & Observations

Time (EDT) Temp. Heat Index Dew Point Humidity Pressure Visibility Wind Dir Wind Speed Gust Speed Precip Events Conditions
12:56 AM 78.1 °F - 77.0 °F 96% 30.00 in 10.0 mi SW 4.6 mph - N/A   Clear
1:56 AM 78.1 °F - 77.0 °F 96% 29.98 in 10.0 mi WSW 4.6 mph - N/A   Clear
2:56 AM 79.0 °F - 78.1 °F 97% 29.96 in 10.0 mi West 4.6 mph - N/A   Clear
3:56 AM 78.1 °F - 77.0 °F 96% 29.96 in 10.0 mi Calm Calm - N/A   Clear
4:56 AM 78.1 °F - 77.0 °F 96% 29.96 in 9.0 mi Calm Calm - N/A   Clear
5:56 AM 78.1 °F - 77.0 °F 96% 29.96 in 10.0 mi Calm Calm - N/A   Clear
6:56 AM 77.0 °F - 77.0 °F 100% 29.98 in 7.0 mi Calm Calm - N/A   Clear
7:56 AM 79.0 °F - 78.1 °F 97% 30.00 in 9.0 mi West 4.6 mph - N/A   Clear
8:56 AM 82.9 °F 93.8 °F 79.0 °F 88% 30.01 in 10.0 mi Variable 3.5 mph - N/A   Clear
9:56 AM 86.0 °F 99.3 °F 79.0 °F 79% 30.02 in 10.0 mi West 6.9 mph - N/A   Mostly Cloudy
10:56 AM 87.1 °F 99.8 °F 78.1 °F 74% 30.02 in 10.0 mi West 5.8 mph - N/A   Mostly Cloudy
11:17 AM 89.6 °F 102.2 °F 77.0 °F 66% 30.02 in 10.0 mi SW 4.6 mph - N/A   Scattered Clouds
11:56 AM 89.1 °F 101.4 °F 77.0 °F 67% 30.02 in 10.0 mi Calm Calm - N/A   Scattered Clouds
12:56 PM 90.0 °F 102.5 °F 77.0 °F 65% 30.00 in 10.0 mi Variable 3.5 mph - N/A   Partly Cloudy
1:56 PM 91.9 °F 105.9 °F 77.0 °F 62% 29.98 in 10.0 mi NNW 5.8 mph - N/A   Mostly Cloudy
2:23 PM 91.4 °F 102.5 °F 75.2 °F 59% 29.97 in 10.0 mi NNW 3.5 mph - N/A Thunderstorm Scattered Clouds
2:34 PM 93.2 °F 105.0 °F 75.2 °F 56% 29.96 in 10.0 mi Calm Calm - N/A Thunderstorm Mostly Cloudy
2:56 PM 86.0 °F 96.9 °F 77.0 °F 74% 29.97 in 10.0 mi WNW 16.1 mph - N/A Rain , Thunderstorm Light Thunderstorms and Rain
3:34 PM 84.2 °F 92.3 °F 75.2 °F 74% 29.97 in 10.0 mi SW 6.9 mph - N/A Rain Light Rain
3:49 PM 84.2 °F 92.3 °F 75.2 °F 74% 29.97 in 10.0 mi WSW 15.0 mph - N/A Thunderstorm Mostly Cloudy
3:56 PM 82.9 °F 90.8 °F 75.9 °F 79% 29.97 in 10.0 mi WSW 13.8 mph - N/A Thunderstorm Mostly Cloudy
4:35 PM 80.6 °F 87.1 °F 77.0 °F 89% 29.96 in 10.0 mi WSW 8.1 mph - N/A   Overcast
4:56 PM 80.1 °F 85.8 °F 77.0 °F 90% 29.96 in 10.0 mi South 8.1 mph - N/A   Mostly Cloudy
5:56 PM 80.1 °F 85.8 °F 77.0 °F 90% 29.95 in 10.0 mi Calm Calm - N/A   Partly Cloudy
6:56 PM 81.0 °F 87.9 °F 77.0 °F 88% 29.94 in 10.0 mi SSW 5.8 mph - N/A   Clear
7:56 PM 80.1 °F 85.8 °F 77.0 °F 90% 29.95 in 10.0 mi WSW 4.6 mph - N/A   Clear
8:56 PM 80.1 °F 85.8 °F 77.0 °F 90% 29.97 in 10.0 mi WNW 3.5 mph - N/A   Clear
9:56 PM 80.1 °F 86.4 °F 78.1 °F 94% 29.99 in 10.0 mi WSW 3.5 mph - N/A   Clear
10:03 PM 80.6 °F 88.1 °F 78.8 °F 94% 29.98 in 10.0 mi Calm Calm - N/A   Overcast
10:56 PM 79.0 °F - 78.1 °F 97% 29.99 in 10.0 mi SW 3.5 mph - N/A   Overcast
11:03 PM 78.8 °F - 78.8 °F 100% 29.99 in 10.0 mi Calm Calm - N/A   Clear
11:56 PM 79.0 °F - 78.1 °F 97% 30.02 in 10.0 mi Calm Calm - N/A   Clear